Weather History for KDIK - May, 2013

Change the Weather History Date:

Thursday, May 2, 2013

  Actual Average Record
Temperature  
Mean Temperature 39 °F 49 °F  
Max Temperature 58 °F 62 °F 87 °F (1955)
Min Temperature 19 °F 35 °F 6 °F (1967)
Degree Days  
Heating Degree Days 26 17  
Month to date heating degree days 56 34  
Since 1 July heating degree days 8158 8096  
Cooling Degree Days 0 0  
Month to date cooling degree days 0 0  
Year to date cooling degree days 0 1  
Moisture  
Dew Point 16 °F    
Average Humidity 48    
Maximum Humidity 77    
Minimum Humidity 18    
Precipitation  
Precipitation 0.00 in 0.07 in 1.21 in (1988)
Month to date precipitation 0.00 0.14  
Year to date precipitation 1.06 2.93  
Sea Level Pressure  
Sea Level Pressure 30.55 in    
Wind  
Wind Speed 7 mph (SSE)    
Max Wind Speed 18 mph    
Max Gust Speed 24 mph    
Visibility 10 miles    
Events      
T = Trace of Precipitation, MM = Missing Value Source: NWS Daily Summary

Daily Weather History Graph

Daily Weather History Graph

Search for Another Location

Airport or City:

Trip Planner

Search our weather history database for the weather conditions in past years. The results will help you decide how hot, cold, wet, or windy it might be!

Date:

Astronomy

May. 02, 2013 Rise Set
Actual Time 5:34 AM MDT 8:03 PM MDT
Civil Twilight 5:00 AM MDT 8:37 PM MDT
Nautical Twilight 4:17 AM MDT 9:19 PM MDT
Astronomical Twilight 3:29 AM MDT 10:08 PM MDT
Moon 1:50 AM MDT (5/2) 12:28 PM MDT (5/2)
Length of Visible Light 15h 36m
Length of Day
14h 28m
Waning Gibbous, 47% of the Moon is Illuminated
May 2
Waning Gibbous
May 9
New
May 17
First Quarter
May 24
Full
May 31
Last Quarter

Hourly Weather History & Observations

Time (MDT) Temp. Windchill Dew Point Humidity Pressure Visibility Wind Dir Wind Speed Gust Speed Precip Events Conditions
12:56 AM 24.1 °F 17.0 °F 12.0 °F 60% 30.66 in 10.0 mi South 5.8 mph - N/A   Clear
1:56 AM 25.0 °F - 14.0 °F 63% 30.65 in 10.0 mi Calm Calm - N/A   Overcast
2:56 AM 27.0 °F 21.6 °F 12.9 °F 56% 30.63 in 10.0 mi South 4.6 mph - N/A   Clear
3:56 AM 24.1 °F - 14.0 °F 65% 30.66 in 10.0 mi Calm Calm - N/A   Clear
4:56 AM 21.9 °F 13.4 °F 16.0 °F 78% 30.66 in 10.0 mi South 6.9 mph - N/A   Overcast
5:56 AM 21.9 °F 15.7 °F 15.1 °F 75% 30.67 in 10.0 mi South 4.6 mph - N/A   Mostly Cloudy
6:56 AM 30.9 °F 25.2 °F 21.0 °F 67% 30.67 in 10.0 mi South 5.8 mph - N/A   Overcast
7:56 AM 37.9 °F 32.1 °F 21.9 °F 53% 30.67 in 10.0 mi South 8.1 mph - N/A   Overcast
8:56 AM 41.0 °F 34.3 °F 17.1 °F 38% 30.66 in 10.0 mi South 11.5 mph - N/A   Overcast
9:56 AM 45.0 °F 38.9 °F 15.1 °F 30% 30.64 in 10.0 mi South 12.7 mph 17.3 mph N/A   Overcast
10:56 AM 48.0 °F - 15.1 °F 27% 30.62 in 10.0 mi South 8.1 mph - N/A   Scattered Clouds
11:56 AM 48.9 °F - 14.0 °F 25% 30.60 in 10.0 mi Variable 3.5 mph - N/A   Clear
12:56 PM 52.0 °F - 15.1 °F 23% 30.55 in 10.0 mi SSE 4.6 mph - N/A   Partly Cloudy
1:56 PM 55.9 °F - 17.1 °F 22% 30.51 in 10.0 mi WNW 11.5 mph 24.2 mph N/A   Partly Cloudy
2:56 PM 55.0 °F - 15.1 °F 21% 30.48 in 10.0 mi SW 6.9 mph - N/A   Partly Cloudy
3:56 PM 55.9 °F - 14.0 °F 19% 30.46 in 10.0 mi SW 5.8 mph - N/A   Clear
4:56 PM 55.9 °F - 14.0 °F 19% 30.45 in 10.0 mi Variable 3.5 mph - N/A   Clear
5:56 PM 55.9 °F - 12.9 °F 18% 30.44 in 10.0 mi South 4.6 mph - N/A   Clear
6:56 PM 54.0 °F - 14.0 °F 21% 30.42 in 10.0 mi East 4.6 mph - N/A   Clear
7:56 PM 46.9 °F - 16.0 °F 29% 30.42 in 10.0 mi East 6.9 mph - N/A   Clear
8:56 PM 39.0 °F 32.8 °F 19.9 °F 46% 30.44 in 10.0 mi ESE 9.2 mph - N/A   Clear
9:56 PM 37.9 °F 30.5 °F 19.9 °F 48% 30.44 in 10.0 mi ESE 11.5 mph - N/A   Clear
10:56 PM 37.0 °F 29.8 °F 21.0 °F 52% 30.43 in 10.0 mi SE 10.4 mph - N/A   Clear
11:56 PM 36.0 °F 27.5 °F 19.9 °F 52% 30.43 in 10.0 mi SE 12.7 mph - N/A   Clear